EW8865 Weather Reports


time (UTC)temp
F
wind
direction
speed
knots
gust
knots
rain 1hr
in
rain 24hr
in
rain mn
in
humidity
%
barometer
mb
20260831210503 57 234 3.5 5.2 0.00 0.25 0.22 80 1018.7
20260831210004 57 234 2.6 6.1 0.00 0.25 0.22 80 1018.7
20260831205003 57 254 3.5 5.2 0.00 0.25 0.22 79 1018.5
20260831204504 57 246 2.6 4.3 0.00 0.25 0.22 79 1018.5
20260831204003 57 232 3.5 5.2 0.00 0.26 0.22 79 1018.5
20260831203504 58 249 2.6 4.3 0.00 0.26 0.22 79 1018.5
20260831203003 58 255 4.3 5.2 0.00 0.26 0.22 79 1018.5
20260831202503 58 244 2.6 4.3 0.00 0.26 0.22 79 1018.5
20260831202004 58 248 3.5 6.1 0.00 0.27 0.22 79 1018.4
20260831201504 58 246 4.3 6.1 0.00 0.28 0.22 79 1018.4
20260831201004 58 246 4.3 6.1 0.00 0.28 0.22 78 1018.3
20260831200503 58 260 4.3 7.0 0.00 0.28 0.22 78 1018.2
20260831195504 59 269 3.5 6.1 0.00 0.28 0.22 77 1018.1
20260831195003 59 258 3.5 6.1 0.00 0.28 0.22 77 1018.1
20260831194503 59 260 2.6 6.1 0.00 0.28 0.22 76 1018.0
20260831194003 60 261 3.5 5.2 0.00 0.28 0.22 76 1017.9
20260831193503 60 261 4.3 6.1 0.00 0.28 0.22 75 1017.9
20260831192504 61 270 4.3 7.0 0.00 0.28 0.22 75 1017.7
20260831191503 61 270 5.2 7.8 0.00 0.28 0.22 74 1017.6
20260831191005 61 284 4.3 8.7 0.00 0.28 0.22 74 1017.5
20260831190003 62 268 6.1 10.4 0.00 0.28 0.22 74 1017.5
20260831185504 62 257 5.2 7.0 0.00 0.28 0.22 74 1017.5
20260831185004 62 247 4.3 7.8 0.00 0.28 0.22 74 1017.4
20260831184503 62 246 4.3 7.8 0.00 0.28 0.22 73 1017.4
20260831184004 62 259 4.3 7.8 0.00 0.28 0.22 73 1017.3
20260831183003 63 260 4.3 8.7 0.00 0.28 0.22 71 1017.2
20260831182504 63 276 2.6 6.1 0.00 0.28 0.22 70 1017.3
20260831182004 63 271 5.2 7.8 0.00 0.28 0.22 70 1017.2
20260831181004 63 290 4.3 7.8 0.00 0.28 0.22 69 1017.1
20260831180504 63 276 4.3 7.0 0.00 0.28 0.22 69 1017.1
20260831175504 63 281 6.1 7.8 0.00 0.30 0.22 68 1016.9
20260831175004 63 265 6.1 7.8 0.00 0.31 0.22 68 1016.9
20260831174503 63 277 5.2 10.4 0.00 0.33 0.22 68 1016.8
20260831174004 63 283 5.2 10.4 0.00 0.35 0.22 68 1016.8
20260831173504 63 292 6.1 11.3 0.00 0.38 0.22 68 1016.8
20260831172504 64 288 6.1 10.4 0.00 0.46 0.22 67 1016.7
20260831172003 64 287 4.3 10.4 0.00 0.46 0.22 68 1016.6
20260831171504 64 280 7.0 11.3 0.00 0.46 0.22 67 1016.5
20260831170503 64 295 5.2 10.4 0.00 0.46 0.22 68 1016.6
20260831170004 64 286 7.8 11.3 0.00 0.46 0.22 67 1016.5
20260831165504 64 284 7.0 11.3 0.00 0.46 0.22 67 1016.5
20260831165004 64 284 7.0 10.4 0.00 0.46 0.22 66 1016.5
20260831164504 65 284 5.2 10.4 0.00 0.46 0.22 66 1016.4
20260831163004 65 274 5.2 10.4 0.00 0.46 0.22 66 1016.2
20260831162504 65 267 5.2 8.7 0.00 0.46 0.22 67 1016.2
20260831162003 65 295 4.3 10.4 0.00 0.46 0.22 67 1016.2
20260831161504 65 287 6.1 10.4 0.00 0.46 0.22 66 1016.2
20260831161004 65 281 6.1 13.0 0.00 0.46 0.22 66 1016.2
20260831160504 65 281 7.0 12.2 0.00 0.46 0.22 65 1016.2
20260831160004 65 287 9.6 15.6 0.00 0.46 0.22 63 1016.1
20260831155503 66 281 10.4 15.6 0.00 0.46 0.22 63 1016.1
20260831155004 66 288 7.0 13.0 0.00 0.46 0.22 65 1016.0
20260831154003 66 292 8.7 13.9 0.00 0.46 0.22 66 1016.0
20260831153504 65 272 7.8 14.8 0.00 0.46 0.22 67 1015.9
20260831153004 66 291 9.6 17.4 0.00 0.46 0.22 67 1015.8
20260831152503 66 277 8.7 13.0 0.00 0.46 0.22 68 1015.8
20260831152003 66 273 9.6 13.9 0.00 0.46 0.22 67 1015.7
20260831151003 66 271 7.8 12.2 0.00 0.46 0.22 67 1015.4
20260831150504 66 282 7.8 13.9 0.00 0.46 0.22 68 1015.4
20260831150004 66 283 7.8 13.0 0.00 0.46 0.22 68 1015.3
20260831145004 65 277 7.8 12.2 0.00 0.46 0.22 68 1015.3
20260831144504 65 284 8.7 13.9 0.00 0.46 0.22 68 1015.2
20260831144004 66 257 9.6 17.4 0.00 0.46 0.22 68 1015.3
20260831143504 66 282 8.7 12.2 0.00 0.46 0.22 68 1015.3
20260831142503 66 263 7.8 13.0 0.00 0.46 0.22 68 1015.2
20260831142004 66 254 7.8 13.0 0.00 0.46 0.22 67 1015.1
20260831141504 66 255 7.8 14.8 0.00 0.46 0.22 67 1015.0
20260831141003 67 257 6.1 12.2 0.00 0.46 0.22 68 1014.9
20260831140503 67 254 8.7 13.0 0.00 0.46 0.22 67 1014.9
20260831140004 67 261 8.7 13.0 0.00 0.46 0.22 66 1014.9
20260831135503 67 274 8.7 13.9 0.00 0.46 0.22 66 1014.8
20260831135004 67 265 8.7 13.0 0.00 0.46 0.22 66 1014.7
20260831134503 67 265 6.1 11.3 0.00 0.46 0.22 68 1014.7
20260831133004 67 291 7.0 11.3 0.00 0.50 0.22 69 1014.5
20260831132004 68 300 5.2 11.3 0.00 0.50 0.22 68 1014.3
20260831131503 68 254 6.1 10.4 0.00 0.50 0.22 71 1014.2
20260831131004 67 299 6.1 10.4 0.00 0.50 0.22 70 1014.2
20260831130503 68 288 7.8 13.9 0.00 0.50 0.22 69 1014.2
20260831130004 68 299 10.4 13.9 0.00 0.50 0.22 68 1014.1
20260831125503 69 290 4.3 13.0 0.00 0.50 0.22 68 1014.0
20260831125004 69 293 6.1 13.0 0.00 0.50 0.22 69 1013.9
20260831124503 68 271 7.8 13.0 0.00 0.50 0.22 70 1013.9
20260831123503 68 289 8.7 13.0 0.00 0.50 0.22 68 1013.9
20260831123003 69 296 7.8 13.9 0.00 0.50 0.22 68 1013.8
20260831122504 69 288 10.4 15.6 0.00 0.50 0.22 68 1013.7
20260831122003 69 275 6.1 17.4 0.00 0.50 0.22 71 1013.6
20260831121503 68 293 10.4 14.8 0.00 0.50 0.22 71 1013.5
20260831121004 68 287 10.4 14.8 0.00 0.50 0.22 72 1013.5
20260831120504 67 296 11.3 17.4 0.00 0.50 0.22 74 1013.5
20260831120004 67 273 9.6 14.8 0.00 0.50 0.22 77 1013.4
20260831115503 66 287 8.7 14.8 0.00 0.50 0.22 80 1013.4
20260831115004 65 287 9.6 14.8 0.00 0.50 0.22 81 1013.4
20260831114503 66 278 10.4 17.4 0.00 0.50 0.22 77 1013.3
20260831114004 68 297 10.4 20.9 0.00 0.50 0.22 72 1013.1
20260831113504 69 295 8.7 13.9 0.00 0.50 0.22 71 1012.9
20260831113003 68 295 7.8 13.0 0.00 0.50 0.22 72 1012.8
20260831112503 68 302 7.8 13.0 0.00 0.50 0.22 70 1012.8
20260831112004 68 275 5.2 12.2 0.00 0.50 0.22 74 1012.7
20260831111503 67 279 7.8 13.9 0.00 0.50 0.22 77 1012.7
20260831111004 66 286 7.8 12.2 0.00 0.50 0.22 75 1012.7
20260831110004 68 287 10.4 17.4 0.00 0.50 0.22 72 1012.6
20260831105503 69 281 8.7 15.6 0.00 0.50 0.22 71 1012.5
20260831105004 69 278 10.4 17.4 0.00 0.50 0.22 71 1012.4
20260831104504 68 280 7.8 14.8 0.00 0.50 0.22 72 1012.2
20260831104004 68 294 7.0 11.3 0.00 0.50 0.22 75 1012.1
20260831103504 67 298 7.8 11.3 0.00 0.50 0.22 76 1012.1
20260831103004 67 294 7.0 13.0 0.00 0.50 0.22 74 1012.1
20260831102503 67 294 7.8 14.8 0.00 0.50 0.22 76 1012.1
20260831102004 66 262 8.7 13.9 0.00 0.50 0.22 77 1012.0
20260831101503 65 282 7.0 15.6 0.00 0.50 0.22 77 1011.9
20260831101004 65 287 7.0 11.3 0.00 0.50 0.22 77 1011.9
20260831100503 65 257 5.2 13.0 0.00 0.50 0.22 77 1011.8
20260831100003 65 280 7.8 13.0 0.00 0.50 0.22 78 1011.7
20260831095504 65 289 7.8 10.4 0.00 0.50 0.22 77 1011.7
20260831095003 65 304 5.2 10.4 0.00 0.50 0.22 78 1011.5
20260831094503 65 310 6.1 10.4 0.00 0.50 0.22 78 1011.4
20260831094004 65 314 7.0 13.0 0.00 0.50 0.22 78 1011.3
20260831093503 65 300 7.0 13.0 0.00 0.50 0.22 78 1011.3
20260831093004 65 316 7.8 11.3 0.00 0.50 0.22 79 1011.1
20260831092503 65 292 7.0 11.3 0.00 0.50 0.22 80 1011.1
20260831092004 64 302 7.8 14.8 0.00 0.50 0.22 81 1010.9
20260831091503 64 293 5.2 10.4 0.00 0.50 0.22 81 1010.9
20260831090503 63 293 7.0 13.9 0.00 0.50 0.22 82 1010.7
20260831090003 63 287 7.0 13.9 0.00 0.50 0.22 83 1010.7
20260831085504 63 277 7.8 11.3 0.00 0.50 0.22 83 1010.6
20260831084504 62 260 7.0 12.2 0.00 0.50 0.22 85 1010.6
20260831083504 62 264 6.1 11.3 0.00 0.50 0.22 84 1010.5
20260831083003 61 258 7.0 11.3 0.00 0.50 0.22 85 1010.3
20260831082504 61 254 4.3 8.7 0.00 0.50 0.22 86 1010.2
20260831082004 61 259 3.5 7.8 0.00 0.50 0.22 86 1010.1
20260831081503 61 260 6.1 10.4 0.00 0.50 0.22 86 1010.0
20260831081003 61 295 6.1 10.4 0.00 0.50 0.22 87 1009.9
20260831080504 61 282 5.2 10.4 0.00 0.50 0.22 88 1009.8
20260831080003 60 259 6.1 10.4 0.00 0.50 0.22 88 1009.7
20260831075503 60 285 6.1 11.3 0.00 0.50 0.22 88 1009.6
20260831075005 60 289 6.1 12.2 0.00 0.50 0.22 89 1009.6
20260831074004 60 287 5.2 10.4 0.00 0.50 0.22 91 1009.3
20260831073503 59 288 8.7 12.2 0.00 0.50 0.22 91 1009.3
20260831072003 59 262 7.0 11.3 0.00 0.50 0.22 92 1008.9
20260831071503 59 258 7.8 11.3 0.00 0.50 0.22 93 1008.8
20260831071004 59 263 7.0 10.4 0.01 0.50 0.22 93 1008.7
20260831070503 59 257 6.1 10.4 0.01 0.50 0.22 93 1008.6
20260831070004 58 274 7.8 11.3 0.01 0.50 0.22 93 1008.5
20260831065503 58 278 6.1 8.7 0.01 0.50 0.22 94 1008.4
20260831065004 58 261 6.1 10.4 0.01 0.50 0.22 93 1008.3
20260831064504 58 260 7.0 10.4 0.01 0.50 0.22 93 1008.2
20260831064004 58 262 6.1 11.3 0.01 0.50 0.22 94 1008.1
20260831063503 57 271 6.1 10.4 0.01 0.50 0.22 94 1008.1
20260831062504 57 259 5.2 7.0 0.01 0.50 0.22 93 1007.8
20260831062004 57 266 5.2 7.8 0.01 0.50 0.22 93 1007.7
20260831061003 57 255 5.2 7.8 0.00 0.50 0.21 94 1007.5
20260831060504 57 257 4.3 7.8 0.00 0.50 0.21 94 1007.3
20260831055503 57 256 5.2 7.8 0.00 0.50 0.21 94 1007.3
20260831055003 57 233 5.2 7.8 0.00 0.50 0.21 94 1007.1
20260831054503 57 224 4.3 7.0 0.00 0.50 0.21 94 1006.9
20260831054004 56 222 5.2 10.4 0.00 0.50 0.21 94 1006.8
20260831053004 56 233 3.5 7.0 0.00 0.50 0.21 94 1006.6
20260831052503 56 238 4.3 6.1 0.00 0.50 0.21 94 1006.6
20260831052004 56 243 4.3 7.0 0.00 0.50 0.21 94 1006.6
20260831051004 56 232 4.3 6.1 0.00 0.50 0.21 94 1006.3
20260831050504 56 232 4.3 6.1 0.00 0.50 0.21 94 1006.1
20260831050004 56 229 4.3 7.8 0.00 0.50 0.21 94 1006.1
20260831045004 56 225 4.3 7.0 0.00 0.50 0.21 94 1006.0
20260831044503 55 247 4.3 7.0 0.00 0.50 0.21 94 1006.0
20260831044004 55 251 2.6 4.3 0.00 0.50 0.21 94 1005.9
20260831043503 55 227 3.5 5.2 0.00 0.50 0.21 94 1005.8
20260831043004 55 231 4.3 5.2 0.00 0.50 0.21 94 1005.8
20260831042503 55 230 4.3 5.2 0.00 0.50 0.21 94 1005.8
20260831042003 55 231 3.5 5.2 0.00 0.50 0.21 94 1005.8
20260831041504 55 225 2.6 4.3 0.00 0.50 0.21 94 1005.8
20260831041003 55 225 2.6 5.2 0.00 0.50 0.21 94 1005.7
20260831040503 55 225 3.5 5.2 0.00 0.50 0.21 93 1005.7
20260831040004 55 222 2.6 4.3 0.00 0.50 0.21 93 1005.6
20260831035503 55 221 2.6 5.2 0.00 0.50 0.21 93 1005.6
20260831035003 55 218 2.6 4.3 0.00 0.50 0.21 93 1005.5
20260831034504 54 223 2.6 5.2 0.00 0.50 0.21 93 1005.6
20260831034004 54 232 4.3 5.2 0.00 0.50 0.21 93 1005.5
20260831033004 54 236 5.2 7.0 0.00 0.50 0.21 93 1005.5
20260831032504 54 233 2.6 5.2 0.00 0.50 0.21 93 1005.5
20260831032003 54 218 2.6 5.2 0.00 0.50 0.21 93 1005.3
20260831031003 54 223 2.6 4.3 0.00 0.50 0.21 93 1005.2
20260831030503 54 224 2.6 5.2 0.00 0.50 0.21 93 1005.2
20260831030004 54 228 2.6 6.1 0.00 0.50 0.21 93 1005.2
20260831024503 55 221 3.5 6.1 0.00 0.50 0.21 93 1005.0
20260831023504 55 226 4.3 5.2 0.00 0.50 0.21 93 1005.0
20260831023003 55 221 1.7 4.3 0.00 0.50 0.21 93 1004.9
20260831022504 55 212 2.6 4.3 0.00 0.50 0.21 93 1004.7
20260831022003 55 220 3.5 4.3 0.00 0.50 0.21 93 1004.7
20260831021504 55 236 3.5 4.3 0.00 0.50 0.21 93 1004.7
20260831021003 55 236 2.6 5.2 0.00 0.50 0.21 93 1004.6
20260831020503 55 231 2.6 4.3 0.00 0.50 0.21 93 1004.6
20260831020004 55 228 1.7 4.3 0.00 0.50 0.21 93 1004.5
20260831015504 55 226 2.6 5.2 0.00 0.50 0.21 93 1004.5
20260831015003 55 231 2.6 4.3 0.00 0.50 0.21 93 1004.4
20260831014503 55 221 3.5 5.2 0.00 0.50 0.21 93 1004.3
20260831014003 55 224 3.5 5.2 0.00 0.50 0.21 93 1004.2
20260831013503 55 235 2.6 4.3 0.00 0.50 0.21 92 1004.2
20260831013004 55 243 3.5 5.2 0.00 0.50 0.21 93 1004.2
20260831012503 55 243 3.5 6.1 0.00 0.50 0.21 92 1004.2
20260831011004 55 266 2.6 5.2 0.00 0.50 0.21 92 1004.2
20260831010504 55 275 2.6 5.2 0.00 0.50 0.21 92 1004.2
20260831010004 55 259 1.7 2.6 0.01 0.50 0.21 92 1004.1
20260831005504 55 261 2.6 5.2 0.02 0.50 0.21 92 1004.1
20260831004503 55 273 1.7 2.6 0.02 0.50 0.21 91 1003.9
20260831004004 55 272 1.7 2.6 0.02 0.50 0.21 92 1003.8
20260831003503 56 272 1.7 2.6 0.02 0.50 0.21 92 1003.8
20260831003004 56 271 1.7 2.6 0.03 0.50 0.21 92 1003.7
20260831002503 56 271 1.7 2.6 0.06 0.50 0.21 92 1003.7
20260831002003 56 279 1.7 5.2 0.06 0.50 0.21 92 1003.7
20260831001503 56 266 2.6 2.6 0.06 0.50 0.21 91 1003.6
20260831001004 56 248 1.7 2.6 0.07 0.50 0.21 91 1003.6
20260831000503 56 246 1.7 4.3 0.11 0.50 0.21 91 1003.5
20260831000004 56 244 1.7 6.1 0.20 0.50 0.20 91 1003.5
20260830235504 56 214 1.7 6.1 0.21 0.49 0.20 91 1003.7
20260830235003 56 188 4.3 7.0 0.21 0.49 0.20 91 1003.7
20260830234503 56 201 4.3 10.4 0.21 0.49 0.20 91 1003.7
20260830234003 56 213 6.1 7.8 0.20 0.48 0.19 91 1003.8
20260830233003 56 199 3.5 8.7 0.20 0.47 0.18 90 1003.6
20260830232503 56 264 3.5 7.0 0.17 0.44 0.15 89 1003.3
20260830232003 56 225 1.7 4.3 0.17 0.44 0.15 89 1003.2
20260830231504 56 210 2.6 6.1 0.17 0.44 0.15 89 1003.2
20260830231004 56 172 2.6 5.2 0.17 0.43 0.14 88 1003.2
20260830230504 57 201 2.6 6.1 0.13 0.39 0.10 87 1003.3
20260830230004 57 203 2.6 8.7 0.02 0.29 0.00 86 1003.6
20260830225504 57 253 3.5 6.1 0.01 0.28 0.28 86 1003.5
20260830225003 58 276 3.5 6.1 0.01 0.28 0.28 86 1003.4
20260830224503 58 290 2.6 8.7 0.01 0.28 0.28 86 1003.2
20260830224004 59 295 7.0 10.4 0.01 0.28 0.28 89 1003.1
20260830223504 59 229 6.1 11.3 0.01 0.28 0.28 89 1002.8
20260830223004 59 215 4.3 10.4 0.01 0.28 0.28 89 1002.8
20260830222504 59 217 4.3 6.1 0.01 0.28 0.28 90 1002.8
20260830222004 59 210 4.3 6.1 0.01 0.28 0.28 89 1002.8
20260830221504 59 217 5.2 10.4 0.01 0.28 0.28 89 1002.8
20260830220504 59 209 4.3 8.7 0.01 0.27 0.27 90 1002.8
20260830220004 59 221 5.2 10.4 0.01 0.27 0.27 90 1002.9
20260830215504 59 223 4.3 10.4 0.01 0.27 0.27 90 1002.9
20260830215003 59 208 4.3 11.3 0.01 0.27 0.27 90 1002.9
20260830214503 60 211 5.2 8.7 0.01 0.27 0.27 90 1002.9
20260830214003 60 200 4.3 7.0 0.02 0.27 0.27 91 1002.9
20260830213503 60 177 4.3 7.0 0.02 0.27 0.27 90 1002.9
20260830213004 60 200 2.6 7.0 0.02 0.27 0.27 91 1002.8
20260830212503 60 150 4.3 8.7 0.02 0.27 0.27 91 1002.8
20260830212004 60 212 2.6 7.8 0.02 0.27 0.27 91 1002.8
20260830211504 60 169 4.3 8.7 0.04 0.27 0.27 91 1002.8
20260830211004 60 184 2.6 7.0 0.04 0.27 0.27 91 1002.8